Home   Weather   Phuket   Past weeks

Flag for Thailand Past Weather in Phuket, Thailand — Yesterday and Last 2 Weeks

Now
84 °F

Passing clouds.


Feels Like: 92 °F
Forecast: 81 / 87 °F
Wind: 5 mph from Southwest

Location: Phuket Airport

Current Time: May 23, 2017 at 12:26:21 am

Latest Report: May 22, 2017 at 11:30 pm


Visibility: 4 mi

Pressure: 29.86 "Hg

Humidity: 74%

Dew Point: 75 °F

Location of PhuketLocation

Past Weather in Phuket — Graph

°F

Phuket Temperature Yesterday

Maximum temperature yesterday: 88 °F (at 12:00 pm)
Minimum temperature yesterday: 81 °F (at 12:00 am)
Average temperature yesterday: 84 °F

High & Low Weather Summary for the Past Weeks

 TemperatureHumidityPressure
High90 °F (May 8, 1:00 pm)94% (May 18, 2:30 pm)29.95 "Hg (May 18, 2:30 pm)
Low77 °F (May 8, 4:00 am)20% (May 18, 9:00 am)29.68 "Hg (May 13, 4:00 pm)
Average82 °F82%29.81 "Hg
* Reported May 7 11:30 pm — May 22 11:00 pm, Phuket. Weather by CustomWeather, © 2017

Note: Actual official high and low records may vary slightly from our data, if they occured in-between our weather recording intervals... More about our weather records

Advertising

Phuket Weather History for the Previous 24 Hours

Scroll right to see more
 ConditionsComfort  
Time TempWeatherWind HumidityBarometerVisibility
11:00 pm
Mon, May 22
82 °FPassing clouds.5 mph79%29.86 "Hg4 mi
10:30 pm82 °FPartly cloudy.5 mph79%29.89 "Hg4 mi
10:00 pm82 °FPartly cloudy.3 mph79%29.86 "Hg4 mi
9:30 pm82 °FPartly cloudy.5 mph79%29.86 "Hg4 mi
9:00 pm82 °FPartly cloudy.3 mph79%29.83 "Hg4 mi
8:30 pm81 °FPartly cloudy.3 mph79%29.83 "Hg3 mi
8:00 pm84 °FRain. Partly cloudy.3 mph74%29.80 "Hg2 mi
7:30 pm84 °FPartly cloudy.6 mph74%29.80 "Hg5 mi
7:00 pm84 °FPartly cloudy.5 mph74%29.80 "Hg5 mi
6:30 pm84 °FBroken clouds.3 mph74%29.77 "Hg5 mi
6:00 pm84 °FBroken clouds.5 mph74%29.77 "Hg5 mi
5:30 pm84 °FBroken clouds.6 mph74%29.77 "Hg5 mi
5:00 pm86 °FBroken clouds.6 mph70%29.74 "Hg5 mi
4:30 pm86 °FBroken clouds.10 mph75%29.77 "Hg5 mi
4:00 pm88 °FBroken clouds.13 mph70%29.74 "Hg6 mi
3:30 pm88 °FBroken clouds.10 mph70%29.74 "Hg5 mi
3:00 pm88 °FBroken clouds.13 mph70%29.77 "Hg5 mi
2:30 pm86 °FBroken clouds.10 mph75%29.77 "Hg5 mi
2:00 pm88 °FBroken clouds.9 mph70%29.77 "Hg4 mi
1:30 pm88 °FBroken clouds.13 mph70%29.80 "Hg5 mi
1:00 pm88 °FBroken clouds.14 mph70%29.80 "Hg5 mi
12:30 pm88 °FBroken clouds.15 mph75%29.83 "Hg5 mi
12:00 pm88 °FBroken clouds.15 mph75%29.83 "Hg4 mi
11:30 am86 °FBroken clouds.14 mph79%29.86 "Hg4 mi
11:00 am86 °FBroken clouds.13 mph79%29.86 "Hg5 mi
10:30 am84 °FBroken clouds.13 mph84%29.86 "Hg4 mi
10:00 am84 °FThunderstorms. Broken clouds.14 mph84%29.86 "Hg4 mi
9:30 am84 °FLight rain. Broken clouds.15 mph79%29.86 "Hg4 mi
9:00 am82 °FScattered showers. Broken clouds.5 mph79%29.86 "Hg4 mi
8:30 am84 °FBroken clouds.10 mph79%29.83 "Hg4 mi
8:00 am82 °FBroken clouds.9 mph84%29.83 "Hg5 mi
7:30 am82 °FLight rain. Broken clouds.7 mph84%29.83 "Hg5 mi
7:00 am82 °FLight rain. Broken clouds.10 mph84%29.80 "Hg4 mi
6:30 am82 °FBroken clouds.13 mph84%29.80 "Hg5 mi
6:00 am82 °FPartly cloudy.9 mph84%29.77 "Hg5 mi
5:30 am82 °FPartly cloudy.10 mph84%29.77 "Hg5 mi
5:00 am82 °FPartly cloudy.8 mph84%29.77 "Hg5 mi
4:30 am82 °FPartly cloudy.5 mph79%29.77 "Hg5 mi
4:00 am82 °FPartly cloudy.7 mph84%29.77 "Hg5 mi
3:30 am82 °FPartly cloudy.7 mph84%29.77 "Hg4 mi
3:00 am82 °FLight rain. Partly cloudy.10 mph84%29.77 "Hg4 mi
2:30 am84 °FPartly cloudy.10 mph79%29.77 "Hg5 mi
2:00 am82 °FPartly cloudy.9 mph84%29.77 "Hg5 mi
1:00 am82 °FPartly cloudy.3 mph84%29.80 "Hg5 mi
12:30 am81 °FPartly cloudy.3 mph89%29.80 "Hg5 mi
12:00 am81 °FPartly cloudy.No wind89%29.80 "Hg5 mi
Weather by CustomWeather, © 2017

See weather overviewHow to use our weather pages